Regional Weather Roundup
Issued by NWS

Current Version | Previous Version | Text Only | Print | Product List | Glossary On
Versions: 1 2 3 4 5 6 7 8 9 10 11 12 13 14 15 16 17 18 19 20 21 22 23 24 25 26 27 28 29 30 31 32 33 34 35 36 37 38 39 40 41 42 43 44 45 46 47 48 49 50
000
ASUS45 KSLC 041810
RWRUT
UTAH REGIONAL WEATHER ROUNDUP
NATIONAL WEATHER SERVICE SALT LAKE CITY UT
1200 PM MDT TUE AUG 04 2015

UTZ001>011-023>025-041900-

NORTHERN UTAH

CITY           SKY/WX    TMP DP  RH WIND       PRES   REMARKS
BRIGHAM CITY   SUNNY     74  54  48 CALM      30.13S
HILL AFB       SUNNY     75  55  48 E6        30.15S
LOGAN          SUNNY     71  57  61 CALM      30.14S
OGDEN          SUNNY     76  55  48 SE3       30.12S
PROVO AIRPORT  MOSUNNY   72  54  53 CALM      30.15S
SALT LAKE CITY MOSUNNY   78  55  44 CALM      30.10F
VERNAL         SUNNY     75  48  38 VRB3      30.19S
WENDOVER       SUNNY     75  52  43 E6        30.11S
HEBER CITY     SUNNY     72  48  43 CALM      30.20F
WEST JORDAN    SUNNY     77  52  41 SE6       30.13F

$$

UTZ012>022-026-027-041900-

SOUTHERN/CENTRAL UTAH

CITY           SKY/WX    TMP DP  RH WIND       PRES   REMARKS
BLANDING       SUNNY     79  47  32 S5        30.30F
BRYCE CANYON   SUNNY     75  41  29 SE10      30.35S
CEDAR CITY     MOSUNNY   86  31  13 SW12G24   30.17F
DELTA          SUNNY     80  45  28 SE3       30.13S
HANKSVILLE     SUNNY     81  52  36 CALM      30.14F
MILFORD        SUNNY     86  42  21 S16       30.13S
MOAB/CYNLANDS  SUNNY     80  54  40 SE6       30.13S
PRICE          SUNNY     75  49  39 SE5       30.23S
ST GEORGE      CLEAR     93  45  18 W8        30.00F
KANAB          SUNNY     88  37  16 SW6       30.21F

$$

REGIONAL REPORTS     COLORADO/ARIZONA

CITY           SKY/WX    TMP DP  RH WIND       PRES   REMARKS
CRAIG, CO      NOT AVBL
GRAND JUNCTION SUNNY     81  49  32 SW5       30.16F
RIFLE          SUNNY     77  48  35 CALM      30.19F
MONTROSE       SUNNY     78  46  32 CALM      30.23F
CORTEZ         SUNNY     81  49  32 W6        30.23F
PAGE, AZ       SUNNY     88  49  25 VRB5      30.11F
GRAND CANYON   SUNNY     81  33  17 S8G16     30.31S
KINGMAN        SUNNY     94  36  13 SW10G23   30.06R
FLAGSTAFF      SUNNY     78  35  21 SW13G22   30.35S

$$

REGIONAL REPORTS    NEVADA/IDAHO/WYOMING

CITY           SKY/WX    TMP DP  RH WIND       PRES   REMARKS
LAS VEGAS, NV  NOT AVBL
ELY            SUNNY     85  24  11 MISG      30.18F
ELKO           SUNNY     81  42  25 NE6       30.09F
POCATELLO, ID  MOSUNNY   77  54  44 CALM      30.11F
BURLEY         SUNNY     77  52  41 E3        30.07S
EVANSTON, WY     N/A     70  47  43 SW12      30.30R
ROCK SPRINGS   SUNNY     71  48  43 W14G22    30.24S
KEMMERER       SUNNY     68  46  45 W12       30.30S

$$



USA.gov is the U.S. government's official web portal to all federal, state and local government web resources and services.